Location: Centerville
(32.8776°N, 96.6203°W)
Time: 05:26:05
(UTC+00:00)

Terra - Pass Details

Date: 17 June 2021
Orbit: 701 x 703 km, 98.2° (Epoch: 29 July)

Event Time Altitude Azimuth Distance (km) Brightness Sun altitude
Exits shadow 03:41:20 24° 76° (ENE) 1,430 3.1 -21.2°
Maximum altitude 03:41:37 24° 70° (ENE) 1,425 3.2 -21.2°
Drops below altitude 10° 03:45:26 10° 16° (NNE) 2,174 4.8 -21.8°
Sets 03:48:02 0° 4° (N) 3,096 5.9 -22.1°
